TimeCST,TemperatureF,Dew PointF,Humidity,Sea Level PressureIn,VisibilityMPH,Wind Direction,Wind SpeedMPH,Gust SpeedMPH,PrecipitationIn,Events,Conditions,WindDirDegrees,DateUTC
12:53 AM,35.6,33.8,93,30.33,10.0,Calm,Calm,-,N/A,,Clear,0,2012-11-18 06:53:00
1:53 AM,35.1,32.0,89,30.33,8.0,Calm,Calm,-,N/A,,Clear,0,2012-11-18 07:53:00
2:53 AM,34.0,32.0,92,30.32,8.0,Calm,Calm,-,N/A,,Clear,0,2012-11-18 08:53:00
3:29 AM,33.8,32.0,93,30.33,2.0,Calm,Calm,-,N/A,,Clear,0,2012-11-18 09:29:00
3:38 AM,33.8,32.0,93,30.33,8.0,Calm,Calm,-,N/A,,Clear,0,2012-11-18 09:38:00
3:53 AM,33.1,30.9,92,30.32,8.0,Calm,Calm,-,N/A,,Clear,0,2012-11-18 09:53:00
4:53 AM,32.0,30.0,92,30.32,8.0,Calm,Calm,-,N/A,,Clear,0,2012-11-18 10:53:00
5:53 AM,32.0,30.0,92,30.32,7.0,Calm,Calm,-,N/A,,Clear,0,2012-11-18 11:53:00
6:53 AM,30.9,30.0,96,30.34,6.0,Calm,Calm,-,N/A,,Clear,0,2012-11-18 12:53:00
7:53 AM,37.0,35.1,93,30.34,10.0,Calm,Calm,-,N/A,,Clear,0,2012-11-18 13:53:00
8:13 AM,42.8,37.4,81,30.34,10.0,Calm,Calm,-,N/A,,Partly Cloudy,0,2012-11-18 14:13:00
8:53 AM,51.1,39.9,66,30.35,10.0,NE,4.6,-,N/A,,Clear,50,2012-11-18 14:53:00
9:53 AM,59.0,39.9,49,30.35,10.0,Calm,Calm,-,N/A,,Clear,0,2012-11-18 15:53:00
10:53 AM,64.0,37.9,38,30.34,10.0,Variable,3.5,-,N/A,,Clear,0,2012-11-18 16:53:00
11:53 AM,66.0,36.0,33,30.32,10.0,Variable,5.8,-,N/A,,Clear,0,2012-11-18 17:53:00
12:53 PM,68.0,35.1,30,30.29,10.0,Variable,3.5,-,N/A,,Clear,0,2012-11-18 18:53:00
1:53 PM,70.0,35.1,28,30.27,10.0,NE,4.6,-,N/A,,Clear,40,2012-11-18 19:53:00
2:53 PM,69.1,32.0,25,30.27,10.0,ENE,5.8,-,N/A,,Clear,60,2012-11-18 20:53:00
3:53 PM,69.1,34.0,27,30.26,10.0,Variable,3.5,-,N/A,,Clear,0,2012-11-18 21:53:00
4:53 PM,61.0,41.0,48,30.27,10.0,Calm,Calm,-,N/A,,Clear,0,2012-11-18 22:53:00
5:53 PM,51.1,41.0,68,30.28,10.0,Calm,Calm,-,N/A,,Clear,0,2012-11-18 23:53:00
6:53 PM,46.0,39.9,79,30.28,10.0,Calm,Calm,-,N/A,,Clear,0,2012-11-19 00:53:00
7:53 PM,44.1,39.0,82,30.29,10.0,Calm,Calm,-,N/A,,Clear,0,2012-11-19 01:53:00
8:53 PM,42.1,37.9,85,30.30,10.0,Calm,Calm,-,N/A,,Clear,0,2012-11-19 02:53:00
9:53 PM,41.0,37.9,89,30.31,10.0,Calm,Calm,-,N/A,,Clear,0,2012-11-19 03:53:00
10:53 PM,39.9,37.0,89,30.30,7.0,Calm,Calm,-,N/A,,Clear,0,2012-11-19 04:53:00
11:53 PM,37.9,36.0,93,30.30,6.0,Calm,Calm,-,N/A,,Clear,0,2012-11-19 05:53:00